Weather History for Danville, VA

Change the Weather History Date:

Friday, January 3, 2014

  Actual Average Record
Temperature  
Mean Temperature 28 °F 38 °F  
Max Temperature 39 °F 47 °F 74 °F (2004)
Min Temperature 17 °F 29 °F 12 °F (1979)
Degree Days  
Heating Degree Days 37 27  
Month to date heating degree days 92 81  
Since 1 July heating degree days 1488 1563  
Cooling Degree Days 0 0  
Month to date cooling degree days 0 0  
Year to date cooling degree days 0 0  
Moisture  
Dew Point 8 °F    
Average Humidity 48    
Maximum Humidity 64    
Minimum Humidity 31    
Precipitation  
Precipitation 0.00 in 0.11 in 1.95 in (1999)
Month to date precipitation 0.37 0.31  
Year to date precipitation 0.37 0.31  
Snow  
Snow 0.00 in - - ()
Month to date snowfall 0.0  
Since 1 July snowfall T  
Snow Depth 0.00 in    
Sea Level Pressure  
Sea Level Pressure 30.22 in    
Wind  
Wind Speed 11 mph (NW)    
Max Wind Speed 28 mph    
Max Gust Speed 39 mph    
Visibility 10 miles    
Events      
T = Trace of Precipitation, MM = Missing Value Source: NWS Daily Summary

Daily Weather History Graph

Daily Weather History Graph

Search for Another Location

Airport:

Trip Planner

Search our weather history database for the weather conditions in past years. The results will help you decide how hot, cold, wet, or windy it might be!

Date:

Astronomy

Jan. 03, 2014 Rise Set
Actual Time 7:29 AM EST 5:14 PM EST
Civil Twilight 7:01 AM EST 5:42 PM EST
Nautical Twilight 6:28 AM EST 6:15 PM EST
Astronomical Twilight 5:57 AM EST 6:46 PM EST
Moon 8:59 AM EST (1/3) 8:15 PM EST (1/3)
Length of Visible Light 10h 41m
Length of Day
9h 44m
Waxing Crescent, 8% of the Moon is Illuminated
Jan 3
Waxing Crescent
Jan 7
First Quarter
Jan 15
Full
Jan 24
Last Quarter
Jan 30
New

Hourly Weather History & Observations

Time (EST) Temp. Windchill Dew Point Humidity Pressure Visibility Wind Dir Wind Speed Gust Speed Precip Events Conditions
12:53 AM 36.0 °F 25.0 °F 21.9 °F 57% 29.73 in 10.0 mi NW 20.7 mph 29.9 mph 0.03 in   Overcast
1:53 AM 33.1 °F 21.2 °F 17.1 °F 52% 29.78 in 10.0 mi WNW 20.7 mph 29.9 mph N/A   Clear
2:53 AM 30.0 °F 17.5 °F 14.0 °F 51% 29.85 in 10.0 mi WNW 19.6 mph 27.6 mph N/A   Clear
3:53 AM 27.0 °F 16.1 °F 10.0 °F 49% 29.92 in 10.0 mi NW 12.7 mph 26.5 mph N/A   Clear
4:53 AM 24.1 °F 9.8 °F 8.1 °F 51% 29.98 in 10.0 mi WNW 19.6 mph 33.4 mph N/A   Clear
5:53 AM 23.0 °F 8.0 °F 6.1 °F 48% 30.05 in 10.0 mi NW 20.7 mph 31.1 mph N/A   Clear
6:53 AM 21.9 °F 9.8 °F 6.1 °F 51% 30.12 in 10.0 mi NNW 12.7 mph 20.7 mph N/A   Clear
7:53 AM 21.9 °F 8.2 °F 5.0 °F 48% 30.17 in 10.0 mi NNW 16.1 mph 23.0 mph N/A   Clear
8:53 AM 24.1 °F 10.1 °F 6.1 °F 46% 30.22 in 10.0 mi NW 18.4 mph 23.0 mph N/A   Clear
9:53 AM 25.0 °F 14.2 °F 6.1 °F 45% 30.26 in 10.0 mi NNW 11.5 mph 19.6 mph N/A   Clear
10:53 AM 27.0 °F 15.2 °F 7.0 °F 43% 30.29 in 10.0 mi NNW 15.0 mph 19.6 mph N/A   Clear
11:53 AM 28.0 °F 17.0 °F 8.1 °F 43% 30.30 in 10.0 mi NW 13.8 mph - 0.11 in   Clear
12:53 PM 28.9 °F 17.7 °F 8.1 °F 41% 30.30 in 10.0 mi NNW 15.0 mph 25.3 mph N/A   Clear
1:53 PM 32.0 °F 23.6 °F 7.0 °F 35% 30.31 in 10.0 mi NW 10.4 mph - N/A   Clear
2:53 PM 30.9 °F 21.2 °F 6.1 °F 35% 30.32 in 10.0 mi WNW 12.7 mph - N/A   Clear
3:53 PM 32.0 °F 22.1 °F 6.1 °F 34% 30.34 in 10.0 mi NNW 13.8 mph - N/A   Clear
4:53 PM 30.0 °F 22.4 °F 3.0 °F 32% 30.36 in 10.0 mi North 8.1 mph - N/A   Clear
5:53 PM 28.0 °F 20.8 °F 5.0 °F 38% 30.39 in 10.0 mi North 6.9 mph - N/A   Clear
6:53 PM 26.1 °F 21.9 °F 5.0 °F 41% 30.42 in 10.0 mi North 3.5 mph - N/A   Clear
7:53 PM 24.1 °F - 6.1 °F 46% 30.43 in 10.0 mi Calm Calm - N/A   Clear
8:53 PM 21.0 °F - 8.1 °F 57% 30.45 in 10.0 mi Calm Calm - N/A   Clear
9:53 PM 19.9 °F - 9.0 °F 62% 30.46 in 10.0 mi Calm Calm - N/A   Clear
10:53 PM 19.0 °F - 9.0 °F 65% 30.47 in 10.0 mi Calm Calm - N/A   Clear
11:53 PM 18.0 °F - 10.0 °F 71% 30.48 in 10.0 mi Calm Calm - N/A   Clear